This demonstration page uses our WeatherBlox Daily Observations layout. Learn more.

Left ArrowRight Arrow

Hourly Observations for July 10, 2018

Temp ( °F °C ) Dew Point ( °F °C ) Humidity (%) Winds ( mph kmh ) Pressure ( in mb ) Visibility ( mi km ) Precip ( " mm )
12:16 am 00:16 Clear 70 21 70 21 100 100 N N/A 30.18 1022 10 16.0934 N/A
12:37 am 00:37 Clear 68 20 68 20 100 100 N N/A 30.18 1022 10 16.0934 N/A
12:56 am 00:56 Clear 68 20 68 20 100 100 N N/A 30.15 1021 10 16.0934 N/A
1:16 am 01:16 Clear 68 20 68 20 100 100 N N/A 30.15 1021 10 16.0934 N/A
1:37 am 01:37 Clear 68 20 68 20 100 100 N N/A 30.15 1021 10 16.0934 N/A
1:56 am 01:56 Clear 68 20 68 20 100 100 N N/A 30.15 1021 10 16.0934 N/A
2:17 am 02:17 Clear 68 20 68 20 100 100 N N/A 30.15 1021 10 16.0934 N/A
2:36 am 02:36 Clear 68 20 68 20 100 100 N N/A 30.15 1021 10 16.0934 N/A
2:56 am 02:56 Clear 68 20 68 20 100 100 N N/A 30.15 1021 10 16.0934 N/A
3:17 am 03:17 Clear 68 20 68 20 100 100 N N/A 30.15 1021 10 16.0934 N/A
3:36 am 03:36 Clear 68 20 68 20 100 100 N N/A 30.15 1021 10 16.0934 N/A
3:57 am 03:57 Clear 68 20 68 20 100 100 N N/A 30.15 1021 10 16.0934 N/A
4:16 am 04:16 Clear 68 20 68 20 100 100 N N/A 30.15 1021 10 16.0934 N/A
4:36 am 04:36 Clear 66 19 66 19 100 100 N N/A 30.15 1021 10 16.0934 N/A
4:57 am 04:57 Clear 68 20 68 20 100 100 N N/A 30.15 1021 10 16.0934 N/A
5:16 am 05:16 Clear 68 20 68 20 100 100 N N/A 30.15 1021 10 16.0934 N/A
5:37 am 05:37 Clear 68 20 68 20 100 100 N N/A 30.15 1021 10 16.0934 N/A
5:56 am 05:56 Clear 68 20 68 20 100 100 N N/A 30.15 1021 7 11.26538 N/A
6:16 am 06:16 Clear 68 20 68 20 100 100 W 3 6 30.15 1021 10 16.0934 N/A
6:37 am 06:37 Partly Cloudy 70 21 70 21 100 100 WSW 3 6 30.15 1021 10 16.0934 N/A
6:56 am 06:56 Sunny 70 21 70 21 100 100 WSW 3 6 30.15 1021 10 16.0934 N/A
7:16 am 07:16 Partly Cloudy 70 21 70 21 100 100 WSW 3 6 30.15 1021 10 16.0934 N/A
7:37 am 07:37 Mostly Cloudy 72 22 72 22 100 100 WSW 5 7 30.15 1021 10 16.0934 N/A
7:57 am 07:57 Partly Cloudy 75 24 75 24 100 100 WSW 3 6 30.12 1020 10 16.0934 N/A
8:17 am 08:17 Partly Cloudy 77 25 75 24 94 94 WSW 5 7 30.12 1020 10 16.0934 N/A
8:36 am 08:36 Partly Cloudy 77 25 75 24 94 94 WSW 3 6 30.12 1020 10 16.0934 N/A
8:57 am 08:57 Partly Cloudy 79 26 77 25 94 94 W 6 9 30.12 1020 10 16.0934 N/A
9:16 am 09:16 Partly Cloudy 79 26 77 25 94 94 W 6 9 30.12 1020 10 16.0934 N/A
9:36 am 09:36 Sunny 81 27 77 25 89 89 W 7 11 30.09 1019 10 16.0934 N/A
9:57 am 09:57 Sunny 82 28 77 25 84 84 WNW 7 11 30.09 1019 10 16.0934 N/A
10:16 am 10:16 Sunny 82 28 79 26 89 89 WNW 7 11 30.09 1019 10 16.0934 N/A
10:37 am 10:37 Sunny 84 29 77 25 79 79 NW 8 13 30.09 1019 10 16.0934 N/A
10:56 am 10:56 Partly Cloudy 84 29 77 25 79 79 WNW 6 9 30.09 1019 10 16.0934 N/A
11:16 am 11:16 Partly Cloudy 86 30 77 25 75 75 WNW 7 11 30.09 1019 10 16.0934 N/A
11:37 am 11:37 Partly Cloudy 86 30 77 25 75 75 WNW 7 11 30.09 1019 10 16.0934 N/A
11:56 am 11:56 Partly Cloudy 86 30 77 25 75 75 WNW 8 13 30.09 1019 10 16.0934 N/A
12:16 pm 12:16 Partly Cloudy 88 31 77 25 70 70 W 7 11 30.09 1019 10 16.0934 N/A
12:37 pm 12:37 Partly Cloudy 86 30 75 24 70 70 WNW 5 7 30.09 1019 10 16.0934 N/A
12:56 pm 12:56 Sunny 88 31 75 24 66 66 WNW 6 9 30.09 1019 10 16.0934 N/A
1:17 pm 13:17 Partly Cloudy 88 31 75 24 66 66 WNW 7 11 30.09 1019 10 16.0934 N/A
1:37 pm 13:37 Sunny 88 31 77 25 70 70 W 8 13 30.06 1018 10 16.0934 N/A
1:56 pm 13:56 Sunny 90 32 75 24 63 63 W 8 13 30.03 1017 10 16.0934 N/A
2:17 pm 14:17 Sunny 90 32 77 25 67 67 W 7 11 30.03 1017 10 16.0934 N/A
2:36 pm 14:36 Partly Cloudy 88 31 75 24 66 66 W 9 15 30.06 1018 10 16.0934 N/A
2:57 pm 14:57 Mostly Cloudy 90 32 77 25 67 67 W 8 13 30 1016 10 16.0934 N/A
3:17 pm 15:17 Partly Cloudy 90 32 77 25 67 67 W 9 15 30 1016 10 16.0934 N/A
3:36 pm 15:36 Partly Cloudy 90 32 77 25 67 67 W 9 15 30 1016 10 16.0934 N/A
3:57 pm 15:57 Partly Cloudy 90 32 77 25 67 67 WNW 12 19 30 1016 10 16.0934 N/A
4:16 pm 16:16 Partly Cloudy 88 31 75 24 66 66 W 8 13 30.03 1017 10 16.0934 N/A
4:37 pm 16:37 Partly Cloudy 88 31 75 24 66 66 WNW 9 15 30.03 1017 10 16.0934 N/A
4:57 pm 16:57 Partly Cloudy 86 30 77 25 75 75 WNW 8 13 30.03 1017 10 16.0934 N/A
5:16 pm 17:16 Sunny 88 31 77 25 70 70 WNW 14 22 30.03 1017 10 16.0934 N/A
5:37 pm 17:37 Sunny 86 30 75 24 70 70 WNW 10 17 30.03 1017 10 16.0934 N/A
5:56 pm 17:56 Partly Cloudy 84 29 75 24 74 74 N 22 35 30.03 1017 10 16.0934 N/A
6:16 pm 18:16 Mostly Cloudy 75 24 75 24 100 100 NNW 10 17 30.03 1017 10 16.0934 N/A
6:37 pm 18:37 Cloudy 75 24 75 24 100 100 N N/A 30 1016 7 11.26538 N/A
6:56 pm 18:56 Partly Cloudy 75 24 75 24 100 100 WNW 7 11 30 1016 10 16.0934 N/A
7:16 pm 19:16 Mostly Cloudy 77 25 75 24 94 94 NW 5 7 30 1016 10 16.0934 N/A
7:37 pm 19:37 Cloudy 77 25 75 24 94 94 N N/A 30 1016 10 16.0934 N/A
7:56 pm 19:56 Cloudy 77 25 75 24 94 94 NE 3 6 30 1016 10 16.0934 N/A
8:17 pm 20:17 Cloudy 77 25 75 24 94 94 N N/A 30 1016 10 16.0934 N/A
8:37 pm 20:37 Cloudy 77 25 75 24 94 94 N N/A 30 1016 10 16.0934 N/A
8:56 pm 20:56 Cloudy 77 25 75 24 94 94 N N/A 30 1016 10 16.0934 N/A
9:17 pm 21:17 Mostly Cloudy 75 24 75 24 100 100 N N/A 30 1016 10 16.0934 N/A
9:36 pm 21:36 Partly Cloudy 73 23 73 23 100 100 WNW 3 6 30 1016 10 16.0934 N/A
9:57 pm 21:57 Clear 75 24 73 23 94 94 WNW 3 6 30 1016 10 16.0934 N/A
10:17 pm 22:17 Clear 72 22 72 22 100 100 W 5 7 30 1016 10 16.0934 N/A
10:36 pm 22:36 Clear 73 23 73 23 100 100 WNW 3 6 30 1016 10 16.0934 N/A
10:57 pm 22:57 Clear 73 23 73 23 100 100 WNW 6 9 30 1016 10 16.0934 N/A
11:16 pm 23:16 Clear 73 23 73 23 100 100 NW 6 9 30 1016 10 16.0934 N/A
11:36 pm 23:36 Clear 73 23 73 23 100 100 NW 7 11 30 1016 10 16.0934 N/A
11:57 pm 23:57 Clear 73 23 72 22 94 94 NNW 7 11 30.03 1017 10 16.0934 N/A

Powered by AerisWeather